| time (UTC) | temp F | wind direction | speed MPH | gust MPH | rain 1hr in | rain 24hr in | rain mn in | humidity % | barometer mb |
| 20260505111528 | 36 | 127 | 0.0 | 3.0 | 0.00 | 0.00 | 0.00 | 35 | 1004.8 |
| 20260505101531 | 42 | 94 | 0.0 | 0.0 | 0.00 | 0.00 | 0.00 | 23 | 1004.5 |
| 20260505100023 | 42 | 293 | 0.0 | 5.0 | 0.00 | 0.00 | 0.00 | 22 | 1004.3 |
| 20260505094517 | 42 | 290 | 4.0 | 7.0 | 0.00 | 0.00 | 0.00 | 22 | 1004.6 |
| 20260505093023 | 43 | 252 | 3.0 | 8.0 | 0.00 | 0.00 | 0.00 | 21 | 1004.5 |
| 20260505091513 | 43 | 257 | 3.0 | 6.0 | 0.00 | 0.00 | 0.00 | 21 | 1005.0 |
| 20260505090011 | 43 | 275 | 1.0 | 9.0 | 0.00 | 0.00 | 0.00 | 20 | 1005.2 |
| 20260505084510 | 43 | 240 | 2.0 | 9.0 | 0.00 | 0.00 | 0.00 | 21 | 1005.3 |
| 20260505083011 | 43 | 208 | 3.0 | 7.0 | 0.00 | 0.00 | 0.00 | 22 | 1005.4 |
| 20260505081507 | 40 | 269 | 3.0 | 5.0 | 0.00 | 0.00 | 0.00 | 27 | 1005.6 |
| 20260505080120 | 39 | 113 | 0.0 | 2.0 | 0.00 | 0.00 | 0.00 | 38 | 1005.7 |
| 20260505074607 | 39 | 166 | 0.0 | 6.0 | 0.00 | 0.00 | 0.00 | 39 | 1005.8 |
| 20260505073058 | 40 | 298 | 0.0 | 2.0 | 0.00 | 0.00 | 0.00 | 37 | 1005.7 |
| 20260505071603 | 40 | 281 | 0.0 | 3.0 | 0.00 | 0.00 | 0.00 | 36 | 1005.8 |
| 20260505070052 | 40 | 85 | 1.0 | 3.0 | 0.00 | 0.00 | 0.00 | 35 | 1005.8 |
| 20260505064550 | 40 | 113 | 0.0 | 3.0 | 0.00 | 0.00 | 0.00 | 35 | 1006.0 |
| 20260505063105 | 40 | 270 | 1.0 | 4.0 | 0.00 | 0.00 | 0.00 | 35 | 1005.9 |
| 20260505061610 | 40 | 137 | 0.0 | 3.0 | 0.00 | 0.00 | 0.00 | 35 | 1005.9 |
| 20260505060042 | 40 | 115 | 1.0 | 4.0 | 0.00 | 0.00 | 0.00 | 34 | 1005.8 |
| 20260505054538 | 41 | 92 | 1.0 | 6.0 | 0.00 | 0.00 | 0.00 | 33 | 1005.5 |
| 20260505053042 | 42 | 109 | 0.0 | 6.0 | 0.00 | 0.00 | 0.00 | 31 | 1005.8 |
| 20260505051556 | 44 | 107 | 0.0 | 0.0 | 0.00 | 0.00 | 0.00 | 31 | 1005.9 |
| 20260505041528 | 48 | 182 | 1.0 | 4.0 | 0.00 | 0.00 | 0.00 | 23 | 1006.1 |
| 20260505040025 | 48 | 254 | 2.0 | 7.0 | 0.00 | 0.00 | 0.00 | 23 | 1006.1 |
| 20260505034517 | 48 | 279 | 3.0 | 10.0 | 0.00 | 0.00 | 0.00 | 22 | 1006.2 |
| 20260505033013 | 48 | 240 | 3.0 | 7.0 | 0.00 | 0.00 | 0.00 | 23 | 1006.2 |
| 20260505031507 | 48 | 266 | 2.0 | 7.0 | 0.00 | 0.00 | 0.00 | 21 | 1006.2 |
| 20260505030004 | 49 | 250 | 4.0 | 9.0 | 0.00 | 0.00 | 0.00 | 20 | 1006.0 |
| 20260505024559 | 49 | 255 | 2.0 | 8.0 | 0.00 | 0.00 | 0.00 | 20 | 1005.9 |
| 20260505023056 | 49 | 258 | 5.0 | 10.0 | 0.00 | 0.00 | 0.00 | 19 | 1006.0 |
| 20260505021552 | 49 | 252 | 4.0 | 11.0 | 0.00 | 0.00 | 0.00 | 18 | 1006.1 |
| 20260505020050 | 50 | 261 | 2.0 | 5.0 | 0.00 | 0.00 | 0.00 | 18 | 1006.0 |
| 20260505014541 | 50 | 252 | 3.0 | 10.0 | 0.00 | 0.00 | 0.00 | 17 | 1006.1 |
| 20260505013037 | 50 | 243 | 2.0 | 5.0 | 0.00 | 0.00 | 0.00 | 17 | 1005.9 |
| 20260505011534 | 51 | 232 | 3.0 | 8.0 | 0.00 | 0.00 | 0.00 | 17 | 1005.8 |
| 20260505010027 | 52 | 242 | 3.0 | 8.0 | 0.00 | 0.00 | 0.00 | 17 | 1005.8 |
| 20260505004525 | 52 | 228 | 3.0 | 10.0 | 0.00 | 0.00 | 0.00 | 16 | 1006.0 |
| 20260505003022 | 53 | 234 | 7.0 | 13.0 | 0.00 | 0.00 | 0.00 | 15 | 1006.0 |
| 20260505001514 | 54 | 252 | 4.0 | 9.0 | 0.00 | 0.00 | 0.00 | 15 | 1006.3 |
| 20260505000010 | 54 | 230 | 3.0 | 8.0 | 0.00 | 0.00 | 0.00 | 14 | 1006.5 |
| 20260504234505 | 55 | 224 | 2.0 | 11.0 | 0.00 | 0.00 | 0.00 | 14 | 1006.4 |
| 20260504233001 | 56 | 238 | 4.0 | 9.0 | 0.00 | 0.00 | 0.00 | 10 | 1006.3 |
| 20260504231604 | 56 | 185 | 3.0 | 10.0 | 0.00 | 0.00 | 0.00 | 13 | 1006.0 |
| 20260504230059 | 57 | 201 | 3.0 | 11.0 | 0.00 | 0.00 | 0.00 | 16 | 1005.7 |
| 20260504224558 | 58 | 341 | 7.0 | 14.0 | 0.00 | 0.00 | 0.00 | 14 | 1006.1 |
| 20260504223054 | 58 | 275 | 3.0 | 11.0 | 0.00 | 0.00 | 0.00 | 12 | 1005.9 |
| 20260504221553 | 59 | 286 | 6.0 | 11.0 | 0.00 | 0.00 | 0.00 | 13 | 1005.9 |
| 20260504220051 | 58 | 252 | 2.0 | 10.0 | 0.00 | 0.00 | 0.00 | 13 | 1006.2 |
| 20260504214555 | 59 | 309 | 4.0 | 11.0 | 0.00 | 0.00 | 0.00 | 13 | 1006.5 |
| 20260504213047 | 60 | 315 | 3.0 | 11.0 | 0.00 | 0.00 | 0.00 | 15 | 1006.6 |
| 20260504211545 | 59 | 214 | 3.0 | 13.0 | 0.00 | 0.00 | 0.00 | 17 | 1007.0 |
| 20260504210049 | 59 | 237 | 4.0 | 14.0 | 0.00 | 0.00 | 0.00 | 16 | 1007.1 |
| 20260504204548 | 59 | 288 | 3.0 | 8.0 | 0.00 | 0.00 | 0.00 | 19 | 1007.3 |
| 20260504203055 | 60 | 309 | 7.0 | 11.0 | 0.00 | 0.00 | 0.00 | 18 | 1007.5 |
| 20260504201541 | 59 | 299 | 4.0 | 11.0 | 0.00 | 0.00 | 0.00 | 20 | 1007.4 |
| 20260504200037 | 59 | 300 | 4.0 | 9.0 | 0.00 | 0.00 | 0.00 | 22 | 1007.5 |
| 20260504194536 | 57 | 300 | 5.0 | 9.0 | 0.00 | 0.00 | 0.00 | 23 | 1007.6 |
| 20260504193032 | 58 | 288 | 3.0 | 10.0 | 0.00 | 0.00 | 0.00 | 25 | 1007.8 |
| 20260504191531 | 57 | 216 | 4.0 | 9.0 | 0.00 | 0.00 | 0.00 | 25 | 1007.8 |
| 20260504190035 | 58 | 303 | 4.0 | 10.0 | 0.00 | 0.00 | 0.00 | 25 | 1007.7 |
| 20260504184533 | 57 | 331 | 3.0 | 13.0 | 0.00 | 0.00 | 0.00 | 25 | 1007.6 |
| 20260504183032 | 57 | 310 | 3.0 | 7.0 | 0.00 | 0.00 | 0.00 | 24 | 1007.8 |
| 20260504181523 | 56 | 240 | 2.0 | 7.0 | 0.00 | 0.00 | 0.00 | 28 | 1008.2 |
| 20260504180021 | 55 | 194 | 2.0 | 8.0 | 0.00 | 0.00 | 0.00 | 26 | 1008.2 |
| 20260504174518 | 55 | 171 | 2.0 | 8.0 | 0.00 | 0.00 | 0.00 | 29 | 1008.4 |
| 20260504173013 | 53 | 211 | 3.0 | 7.0 | 0.00 | 0.00 | 0.00 | 30 | 1008.5 |
| 20260504171512 | 53 | 242 | 2.0 | 7.0 | 0.00 | 0.00 | 0.00 | 32 | 1008.4 |